CZ-6A DEB, 54969

Orbit data source: Space-Track

CZ-6A DEB, 54969 is space debris in SSO originally from a launch on Fri, 11 Nov 2022 UTC launched from the Taiyaun Space Center, China (TSC). Debris objects in space refer to the collection of defunct objects orbiting the Earth. Examples of debris include non-operational satellites, rocket bodies, and fragments generated from explosions, collisions, or faulty payload assembly.

Loading next visibility...
Identifier
54969, 2022-151TJ
Orbit
SSO
Country
Flag of CNCN / PRC
Related business
Manufacturer
SAST
Mission
Spacecraft
Bus & Motor
Unknown
Mass
Unknown
Launch date (UTC)
2022-11-11 (4 years ago)
Launch vehicle
Unknown
Launch site
Taiyaun Space Center, China (TSC)
Object type
Payload
Rocket body
Debris
Shape & HBR
Unknown shape, 0.2 m
Radar Cross Section
Medium (>0.1 m² and <1 m²)

Expand to show TLE details & history
Last TLE update: 12 hours ago

TLE from 12 hours ago
0 CZ-6A DEB
1 54969U 22151TJ  26207.61078911  .00000134  00000-0  10032-3 0  9991
2 54969  98.8547 207.7997 0046839 214.5731 145.2391 14.09637387190216
Epoch: 2026-07-26T14:39Z
TLE epoch observation values (Epoch: 2026-07-26T14:39:32.179Z)
Latitude
-0.00001°
Longitude
43.60938°
Altitude
891.42 km
Speed
7.392 km/s
True Right ascension
13h 51m 11s
True Declination
0° 00' 00"
Sunlit
Object was in daylight at epoch
Visualization orbit readout
Latitude
Unknown
Longitude
Unknown
Altitude
Unknown
Speed
Unknown
Apparent Right ascension
Unknown
Apparent Declination
Unknown
Sunlit
N/A
Visualization observer readout
Local Sidereal Time
16:23:39
Azimuth
Unknown
Elevation
Unknown
Doppler factor
Unknown
Orbital elements
Apogee altitude
891.685 km
Perigee altitude
823.9 km
Semi-major axis
7,235.929 km
Eccentricity
0.00468
Inclination
98.8547°
RAAN
207.7997°
Arg. of periapsis
214.5731°
True anomaly
145.54365°
Mean anomaly
145.2391°
Eccentric anomaly
145.39152°
Mean motion
3.52616 °/min
Orbital period
102.09 mins
BSTAR
0.00010032
Loading maneuver chart data...
Computing Atmospheric mass density...
Loading historical data...
Loading historical data...
Loading historical data...
Loading historical data...
Loading historical data...
Loading historical data...
Loading historical data...

Documentation

Showing up to 5 results
|